Time,TemperatureF,DewpointF,PressureIn,WindDirection,WindDirectionDegrees,WindSpeedMPH,WindSpeedGustMPH,Humidity,HourlyPrecipIn,Conditions,Clouds,dailyrainin,SolarRadiationWatts/m^2,SoftwareType,DateUTC
2013-10-14 00:42:00,56.0,41.0,-100.00,West,279,2.0,9.0,58,-99.99,,,0.00,0.000000,,2013-10-14 07:42:00,
2013-10-14 00:52:00,56.0,41.0,-100.00,West,279,2.0,9.0,58,-99.99,,,0.00,0.000000,,2013-10-14 07:52:00,
2013-10-14 01:02:00,56.0,41.0,-100.00,West,279,2.0,9.0,58,-99.99,,,0.00,0.000000,,2013-10-14 08:02:00,
2013-10-14 01:42:00,59.0,41.0,-100.00,WSW,237,3.0,7.0,52,0.00,,,0.00,0.000000,,2013-10-14 08:42:00,
2013-10-14 01:52:00,59.0,41.0,-100.00,WSW,237,3.0,7.0,52,0.00,,,0.00,0.000000,,2013-10-14 08:52:00,
2013-10-14 02:01:00,59.0,41.0,-100.00,WSW,237,3.0,7.0,52,0.00,,,0.00,0.000000,,2013-10-14 09:01:00,
2013-10-14 02:43:00,61.0,40.0,-100.00,ESE,120,4.0,12.0,45,0.00,,,0.00,0.000000,,2013-10-14 09:43:00,
2013-10-14 02:53:00,61.0,40.0,-100.00,ESE,120,4.0,12.0,45,0.00,,,0.00,0.000000,,2013-10-14 09:53:00,
2013-10-14 03:03:00,61.0,40.0,-100.00,ESE,120,4.0,12.0,45,0.00,,,0.00,0.000000,,2013-10-14 10:03:00,
2013-10-14 03:42:00,61.0,40.0,-100.00,SE,141,4.0,10.0,45,0.00,,,0.00,0.000000,,2013-10-14 10:42:00,
2013-10-14 03:53:00,61.0,40.0,-100.00,SE,141,4.0,10.0,45,0.00,,,0.00,0.000000,,2013-10-14 10:53:00,
2013-10-14 04:02:00,61.0,40.0,-100.00,SE,141,4.0,10.0,45,0.00,,,0.00,0.000000,,2013-10-14 11:02:00,
2013-10-14 04:42:00,59.0,38.0,-100.00,SSW,204,2.0,9.0,46,0.00,,,0.00,0.000000,,2013-10-14 11:42:00,
2013-10-14 04:52:00,59.0,38.0,-100.00,SSW,204,2.0,9.0,46,0.00,,,0.00,0.000000,,2013-10-14 11:52:00,
2013-10-14 05:02:00,59.0,38.0,-100.00,SSW,204,2.0,9.0,46,0.00,,,0.00,0.000000,,2013-10-14 12:02:00,
2013-10-14 05:42:00,59.0,38.0,-100.00,NE,36,3.0,10.0,46,0.00,,,-99.99,0.000000,,2013-10-14 12:42:00,
2013-10-14 05:52:00,59.0,38.0,-100.00,NE,36,3.0,10.0,46,0.00,,,-99.99,0.000000,,2013-10-14 12:52:00,
2013-10-14 06:02:00,59.0,38.0,-100.00,NE,36,3.0,10.0,46,0.00,,,-99.99,0.000000,,2013-10-14 13:02:00,
2013-10-14 06:42:00,59.0,37.0,-100.00,SW,220,3.0,10.0,44,0.00,,,0.00,0.000000,,2013-10-14 13:42:00,
2013-10-14 06:52:00,59.0,37.0,-100.00,SW,220,3.0,10.0,44,0.00,,,0.00,0.000000,,2013-10-14 13:52:00,
2013-10-14 07:02:00,59.0,37.0,-100.00,SW,220,3.0,10.0,44,0.00,,,0.00,0.000000,,2013-10-14 14:02:00,
2013-10-14 07:22:00,58.0,37.0,-100.00,WNW,300,3.0,7.0,45,0.00,,,0.00,0.000000,,2013-10-14 14:22:00,
2013-10-14 07:32:00,58.0,37.0,-100.00,WNW,300,3.0,7.0,45,0.00,,,0.00,0.000000,,2013-10-14 14:32:00,
2013-10-14 07:42:00,58.0,37.0,-100.00,WNW,300,3.0,7.0,45,0.00,,,0.00,0.000000,,2013-10-14 14:42:00,
2013-10-14 07:52:00,58.0,37.0,-100.00,WNW,300,3.0,7.0,45,0.00,,,0.00,0.000000,,2013-10-14 14:52:00,
2013-10-14 08:01:00,58.0,37.0,-100.00,WNW,300,3.0,7.0,45,0.00,,,0.00,0.000000,,2013-10-14 15:01:00,
2013-10-14 08:44:00,57.0,36.0,-100.00,WNW,303,2.0,6.0,45,0.00,,,0.00,10.000000,,2013-10-14 15:44:00,
2013-10-14 08:54:00,57.0,36.0,-100.00,WNW,303,2.0,6.0,45,0.00,,,0.00,10.000000,,2013-10-14 15:54:00,
2013-10-14 09:03:00,57.0,36.0,-100.00,WNW,303,2.0,6.0,45,0.00,,,0.00,10.000000,,2013-10-14 16:03:00,
2013-10-14 09:43:00,65.0,36.0,-100.00,East,96,2.0,5.0,34,0.00,,,0.00,189.000000,,2013-10-14 16:43:00,
2013-10-14 09:53:00,65.0,36.0,-100.00,East,96,2.0,5.0,34,0.00,,,0.00,189.000000,,2013-10-14 16:53:00,
2013-10-14 10:02:00,65.0,36.0,-100.00,East,96,2.0,5.0,34,0.00,,,0.00,189.000000,,2013-10-14 17:02:00,
2013-10-14 10:42:00,70.0,38.0,-100.00,SSE,168,2.0,6.0,31,0.00,,,0.00,427.000000,,2013-10-14 17:42:00,
2013-10-14 10:52:00,70.0,38.0,-100.00,SSE,168,2.0,6.0,31,0.00,,,0.00,427.000000,,2013-10-14 17:52:00,
2013-10-14 11:01:00,70.0,38.0,-100.00,SSE,168,2.0,6.0,31,0.00,,,0.00,427.000000,,2013-10-14 18:01:00,
2013-10-14 13:43:00,75.0,37.0,-100.00,SE,128,7.0,15.0,25,-99.99,,,0.00,718.000000,,2013-10-14 20:43:00,
2013-10-14 13:52:00,75.0,37.0,-100.00,SE,128,7.0,15.0,25,-99.99,,,0.00,718.000000,,2013-10-14 20:52:00,
2013-10-14 14:02:00,75.0,37.0,-100.00,SE,128,7.0,15.0,25,-99.99,,,0.00,718.000000,,2013-10-14 21:02:00,
2013-10-14 14:04:00,76.0,36.0,-100.00,North,6,3.0,15.0,23,0.00,,,0.00,693.000000,,2013-10-14 21:04:00,
2013-10-14 14:44:00,76.0,36.0,-100.00,North,6,3.0,15.0,23,0.00,,,0.00,693.000000,,2013-10-14 21:44:00,
2013-10-14 14:54:00,76.0,36.0,-100.00,North,6,3.0,15.0,23,0.00,,,0.00,693.000000,,2013-10-14 21:54:00,
2013-10-14 16:42:00,76.0,43.0,-100.00,WSW,255,3.0,5.0,31,-99.99,,,0.00,423.000000,,2013-10-14 23:42:00,
2013-10-14 16:52:00,76.0,43.0,-100.00,WSW,255,3.0,5.0,31,-99.99,,,0.00,423.000000,,2013-10-14 23:52:00,
2013-10-14 17:02:00,76.0,43.0,-100.00,WSW,255,3.0,5.0,31,-99.99,,,0.00,423.000000,,2013-10-15 00:02:00,
2013-10-14 17:42:00,69.0,42.0,-100.00,WSW,251,2.0,5.0,38,0.00,,,0.00,81.000000,,2013-10-15 00:42:00,
2013-10-14 17:52:00,69.0,42.0,-100.00,WSW,251,2.0,5.0,38,0.00,,,0.00,81.000000,,2013-10-15 00:52:00,
2013-10-14 18:01:00,69.0,42.0,-100.00,WSW,251,2.0,5.0,38,0.00,,,0.00,81.000000,,2013-10-15 01:01:00,
2013-10-14 18:42:00,65.0,43.0,-100.00,SW,234,1.0,3.0,45,0.00,,,0.00,23.000000,,2013-10-15 01:42:00,
2013-10-14 18:52:00,65.0,43.0,-100.00,SW,234,1.0,3.0,45,0.00,,,0.00,23.000000,,2013-10-15 01:52:00,
2013-10-14 19:02:00,65.0,43.0,-100.00,SW,234,1.0,3.0,45,0.00,,,0.00,23.000000,,2013-10-15 02:02:00,
2013-10-14 19:42:00,60.0,43.0,-100.00,SW,236,0.0,2.0,54,0.00,,,0.00,5.000000,,2013-10-15 02:42:00,
2013-10-14 19:52:00,60.0,43.0,-100.00,SW,236,0.0,2.0,54,0.00,,,0.00,5.000000,,2013-10-15 02:52:00,
2013-10-14 20:02:00,60.0,43.0,-100.00,SW,236,0.0,2.0,54,0.00,,,0.00,5.000000,,2013-10-15 03:02:00,
2013-10-14 20:04:00,57.0,43.0,-100.00,SW,229,0.0,2.0,60,0.00,,,0.00,0.000000,,2013-10-15 03:04:00,
2013-10-14 20:44:00,57.0,43.0,-100.00,SW,229,0.0,2.0,60,0.00,,,0.00,0.000000,,2013-10-15 03:44:00,
2013-10-14 20:55:00,57.0,43.0,-100.00,SW,229,0.0,2.0,60,0.00,,,0.00,0.000000,,2013-10-15 03:55:00,
2013-10-14 21:43:00,56.0,42.0,-100.00,West,268,1.0,3.0,60,0.00,,,0.00,0.000000,,2013-10-15 04:43:00,
2013-10-14 22:42:00,66.0,38.0,-100.00,WSW,238,3.0,8.0,36,0.00,,,0.00,0.000000,,2013-10-15 05:42:00,
2013-10-14 22:53:00,66.0,38.0,-100.00,WSW,238,3.0,8.0,36,0.00,,,0.00,0.000000,,2013-10-15 05:53:00,
2013-10-14 23:02:00,66.0,38.0,-100.00,WSW,238,3.0,8.0,36,0.00,,,0.00,0.000000,,2013-10-15 06:02:00,
2013-10-14 23:43:00,67.0,38.0,-100.00,SSE,164,3.0,9.0,34,0.00,,,0.00,0.000000,,2013-10-15 06:43:00,
2013-10-14 23:52:00,67.0,38.0,-100.00,SSE,164,3.0,9.0,34,0.00,,,0.00,0.000000,,2013-10-15 06:52:00,